owner,sensor,date,latitude,longitude,vertical_datum,wind_speed,wind_to_direction,wind_speed_of_gust,qcFlag 
ADCP,ioos:station:wmo:42361:1,2015-01-01T00:30:00Z,27.5500,-92.4900,122.0,11.2,27.0,99.0,'11111222,11111222,11144222' 
ADCP,ioos:station:wmo:42361:1,2015-01-01T01:30:00Z,27.5500,-92.4900,122.0,12.3,33.0,99.0,'11111222,11111222,11144222' 
ADCP,ioos:station:wmo:42361:1,2015-01-01T02:30:00Z,27.5500,-92.4900,122.0,12.3,35.0,99.0,'11111222,11111222,11144222' 
ADCP,ioos:station:wmo:42361:1,2015-01-01T03:30:00Z,27.5500,-92.4900,122.0,12.9,33.0,99.0,'11111222,11111222,11144222' 
ADCP,ioos:station:wmo:42361:1,2015-01-01T04:30:00Z,27.5500,-92.4900,122.0,11.5,35.0,99.0,'11111222,11111222,11144222' 
ADCP,ioos:station:wmo:42361:1,2015-01-01T05:30:00Z,27.5500,-92.4900,122.0,12.5,31.0,99.0,'11111222,11111222,11144222' 
ADCP,ioos:station:wmo:42361:1,2015-01-01T06:30:00Z,27.5500,-92.4900,122.0,12.1,33.0,99.0,'11111222,11111222,11144222' 
ADCP,ioos:station:wmo:42361:1,2015-01-01T07:30:00Z,27.5500,-92.4900,122.0,12.0,40.0,99.0,'11111222,11111222,11144222' 
ADCP,ioos:station:wmo:42361:1,2015-01-01T08:30:00Z,27.5500,-92.4900,122.0,12.3,41.0,99.0,'11111222,11111222,11144222' 
ADCP,ioos:station:wmo:42361:1,2015-01-01T09:30:00Z,27.5500,-92.4900,122.0,11.5,49.0,99.0,'11111222,11111222,11144222' 
ADCP,ioos:station:wmo:42361:1,2015-01-01T10:30:00Z,27.5500,-92.4900,122.0,10.5,53.0,99.0,'11111222,11111222,11144222' 
ADCP,ioos:station:wmo:42361:1,2015-01-01T11:30:00Z,27.5500,-92.4900,122.0,11.2,58.0,99.0,'11111222,11111222,11144222' 
ADCP,ioos:station:wmo:42361:1,2015-01-01T12:30:00Z,27.5500,-92.4900,122.0,11.3,61.0,99.0,'11111222,11111222,11144222' 
ADCP,ioos:station:wmo:42361:1,2015-01-01T13:30:00Z,27.5500,-92.4900,122.0,11.7,74.0,99.0,'11111222,11111222,11144222' 
ADCP,ioos:station:wmo:42361:1,2015-01-01T14:30:00Z,27.5500,-92.4900,122.0,10.9,76.0,99.0,'11111222,11111222,11144222' 
ADCP,ioos:station:wmo:42361:1,2015-01-01T15:30:00Z,27.5500,-92.4900,122.0,10.2,72.0,99.0,'11111222,11111222,11144222' 
ADCP,ioos:station:wmo:42361:1,2015-01-01T16:30:00Z,27.5500,-92.4900,122.0,10.4,83.0,99.0,'11111222,11111222,11144222' 
ADCP,ioos:station:wmo:42361:1,2015-01-01T17:30:00Z,27.5500,-92.4900,122.0,9.7,90.0,99.0,'11111222,11111222,11144222' 
ADCP,ioos:station:wmo:42361:1,2015-01-01T18:30:00Z,27.5500,-92.4900,122.0,9.0,90.0,99.0,'11111222,11111222,11144222' 
ADCP,ioos:station:wmo:42361:1,2015-01-01T19:30:00Z,27.5500,-92.4900,122.0,7.6,91.0,99.0,'11111222,11111222,11144222' 
ADCP,ioos:station:wmo:42361:1,2015-01-01T20:30:00Z,27.5500,-92.4900,122.0,6.9,100.0,99.0,'11111222,11111222,11144222' 
ADCP,ioos:station:wmo:42361:1,2015-01-01T21:30:00Z,27.5500,-92.4900,122.0,7.8,100.0,99.0,'11111222,11111222,11144222' 
ADCP,ioos:station:wmo:42361:1,2015-01-01T22:30:00Z,27.5500,-92.4900,122.0,7.6,109.0,99.0,'11111222,11111222,11144222' 
ADCP,ioos:station:wmo:42361:1,2015-01-01T23:30:00Z,27.5500,-92.4900,122.0,7.1,127.0,99.0,'11111222,11111222,11144222' 
ADCP,ioos:station:wmo:42361:1,2015-01-02T00:30:00Z,27.5500,-92.4900,122.0,7.3,150.0,99.0,'11111222,11111222,11144222' 
ADCP,ioos:station:wmo:42361:1,2015-01-02T01:30:00Z,27.5500,-92.4900,122.0,7.2,150.0,99.0,'11111222,11111222,11144222' 
ADCP,ioos:station:wmo:42361:1,2015-01-02T02:30:00Z,27.5500,-92.4900,122.0,7.3,150.0,99.0,'11111222,11111222,11144222' 
ADCP,ioos:station:wmo:42361:1,2015-01-02T03:30:00Z,27.5500,-92.4900,122.0,6.7,157.0,99.0,'11111222,11111222,11144222' 
ADCP,ioos:station:wmo:42361:1,2015-01-02T04:30:00Z,27.5500,-92.4900,122.0,7.3,156.0,99.0,'11111222,11111222,11144222' 
ADCP,ioos:station:wmo:42361:1,2015-01-02T05:30:00Z,27.5500,-92.4900,122.0,6.8,162.0,99.0,'11111222,11111222,11144222' 
ADCP,ioos:station:wmo:42361:1,2015-01-02T06:30:00Z,27.5500,-92.4900,122.0,6.6,165.0,99.0,'11111222,11111222,11144222' 
ADCP,ioos:station:wmo:42361:1,2015-01-02T07:30:00Z,27.5500,-92.4900,122.0,6.7,164.0,99.0,'11111222,11111222,11144222' 
ADCP,ioos:station:wmo:42361:1,2015-01-02T08:30:00Z,27.5500,-92.4900,122.0,6.0,169.0,99.0,'11111222,11111222,11144222' 
ADCP,ioos:station:wmo:42361:1,2015-01-02T09:30:00Z,27.5500,-92.4900,122.0,4.5,170.0,99.0,'11111222,11111222,11144222' 
ADCP,ioos:station:wmo:42361:1,2015-01-02T10:30:00Z,27.5500,-92.4900,122.0,4.0,176.0,99.0,'11111222,11111222,11144222' 
ADCP,ioos:station:wmo:42361:1,2015-01-02T11:30:00Z,27.5500,-92.4900,122.0,4.4,170.0,99.0,'11111222,11111222,11144222' 
ADCP,ioos:station:wmo:42361:1,2015-01-02T12:30:00Z,27.5500,-92.4900,122.0,4.9,152.0,99.0,'11111222,11111222,11144222' 
ADCP,ioos:station:wmo:42361:1,2015-01-02T13:30:00Z,27.5500,-92.4900,122.0,5.1,151.0,99.0,'11111222,11111222,11144222' 
ADCP,ioos:station:wmo:42361:1,2015-01-02T14:30:00Z,27.5500,-92.4900,122.0,5.5,135.0,99.0,'11111222,11111222,11144222' 
ADCP,ioos:station:wmo:42361:1,2015-01-02T15:30:00Z,27.5500,-92.4900,122.0,5.0,125.0,99.0,'11111222,11111222,11144222' 
ADCP,ioos:station:wmo:42361:1,2015-01-02T16:30:00Z,27.5500,-92.4900,122.0,5.0,115.0,99.0,'11111222,11111222,11144222' 
ADCP,ioos:station:wmo:42361:1,2015-01-02T17:30:00Z,27.5500,-92.4900,122.0,5.5,115.0,99.0,'11111222,11111222,11144222' 
ADCP,ioos:station:wmo:42361:1,2015-01-02T18:30:00Z,27.5500,-92.4900,122.0,6.4,127.0,99.0,'11111222,11111222,11144222' 
ADCP,ioos:station:wmo:42361:1,2015-01-02T19:30:00Z,27.5500,-92.4900,122.0,7.0,140.0,99.0,'11111222,11111222,11144222' 
ADCP,ioos:station:wmo:42361:1,2015-01-02T20:30:00Z,27.5500,-92.4900,122.0,7.1,136.0,99.0,'11111222,11111222,11144222' 
ADCP,ioos:station:wmo:42361:1,2015-01-02T21:30:00Z,27.5500,-92.4900,122.0,7.4,132.0,99.0,'11111222,11111222,11144222' 
ADCP,ioos:station:wmo:42361:1,2015-01-02T22:30:00Z,27.5500,-92.4900,122.0,7.7,121.0,99.0,'11111222,11111222,11144222' 
ADCP,ioos:station:wmo:42361:1,2015-01-02T23:30:00Z,27.5500,-92.4900,122.0,8.7,120.0,99.0,'11111222,11111222,11144222' 
ADCP,ioos:station:wmo:42361:1,2015-01-03T00:30:00Z,27.5500,-92.4900,122.0,10.3,120.0,99.0,'11111222,11111222,11144222' 
ADCP,ioos:station:wmo:42361:1,2015-01-03T01:30:00Z,27.5500,-92.4900,122.0,11.2,120.0,99.0,'11111222,11111222,11144222' 
ADCP,ioos:station:wmo:42361:1,2015-01-03T02:30:00Z,27.5500,-92.4900,122.0,11.1,126.0,99.0,'11111222,11111222,11144222' 
ADCP,ioos:station:wmo:42361:1,2015-01-03T03:30:00Z,27.5500,-92.4900,122.0,10.6,138.0,99.0,'11111222,11111222,11144222' 
ADCP,ioos:station:wmo:42361:1,2015-01-03T04:30:00Z,27.5500,-92.4900,122.0,10.1,142.0,99.0,'11111222,11111222,11144222' 
ADCP,ioos:station:wmo:42361:1,2015-01-03T05:30:00Z,27.5500,-92.4900,122.0,10.9,147.0,99.0,'11111222,11111222,11144222' 
ADCP,ioos:station:wmo:42361:1,2015-01-03T06:30:00Z,27.5500,-92.4900,122.0,10.3,150.0,99.0,'11111222,11111222,11144222' 
ADCP,ioos:station:wmo:42361:1,2015-01-03T07:30:00Z,27.5500,-92.4900,122.0,10.8,150.0,99.0,'11111222,11111222,11144222' 
ADCP,ioos:station:wmo:42361:1,2015-01-03T08:30:00Z,27.5500,-92.4900,122.0,10.2,149.0,99.0,'11111222,11111222,11144222' 
ADCP,ioos:station:wmo:42361:1,2015-01-03T09:30:00Z,27.5500,-92.4900,122.0,11.1,141.0,99.0,'11111222,11111222,11144222' 
ADCP,ioos:station:wmo:42361:1,2015-01-03T10:30:00Z,27.5500,-92.4900,122.0,13.9,141.0,99.0,'11111222,11111222,11144222' 
ADCP,ioos:station:wmo:42361:1,2015-01-03T11:30:00Z,27.5500,-92.4900,122.0,14.4,150.0,99.0,'11111222,11111222,11144222' 
ADCP,ioos:station:wmo:42361:1,2015-01-03T12:30:00Z,27.5500,-92.4900,122.0,13.8,150.0,99.0,'11111222,11111222,11144222' 
ADCP,ioos:station:wmo:42361:1,2015-01-03T13:30:00Z,27.5500,-92.4900,122.0,13.7,152.0,99.0,'11111222,11111222,11144222' 
ADCP,ioos:station:wmo:42361:1,2015-01-03T14:30:00Z,27.5500,-92.4900,122.0,13.5,153.0,99.0,'11111222,11111222,11144222' 
ADCP,ioos:station:wmo:42361:1,2015-01-03T15:30:00Z,27.5500,-92.4900,122.0,16.5,153.0,99.0,'11111222,11111222,11144222' 
ADCP,ioos:station:wmo:42361:1,2015-01-03T16:30:00Z,27.5500,-92.4900,122.0,15.1,160.0,99.0,'11111222,11111222,11144222' 
ADCP,ioos:station:wmo:42361:1,2015-01-03T17:30:00Z,27.5500,-92.4900,122.0,14.2,160.0,99.0,'11111222,11111222,11144222' 
ADCP,ioos:station:wmo:42361:1,2015-01-03T18:30:00Z,27.5500,-92.4900,122.0,14.5,160.0,99.0,'11111222,11111222,11144222' 
ADCP,ioos:station:wmo:42361:1,2015-01-03T19:30:00Z,27.5500,-92.4900,122.0,14.4,160.0,99.0,'11111222,11111222,11144222' 
ADCP,ioos:station:wmo:42361:1,2015-01-03T20:30:00Z,27.5500,-92.4900,122.0,15.8,162.0,99.0,'11111222,11111222,11144222' 
ADCP,ioos:station:wmo:42361:1,2015-01-03T21:30:00Z,27.5500,-92.4900,122.0,14.2,168.0,99.0,'11111222,11111222,11144222' 
ADCP,ioos:station:wmo:42361:1,2015-01-03T22:30:00Z,27.5500,-92.4900,122.0,13.5,164.0,99.0,'11111222,11111222,11144222' 
ADCP,ioos:station:wmo:42361:1,2015-01-03T23:30:00Z,27.5500,-92.4900,122.0,12.5,169.0,99.0,'11111222,11111222,11144222' 
ADCP,ioos:station:wmo:42361:1,2015-01-04T00:30:00Z,27.5500,-92.4900,122.0,11.2,168.0,99.0,'11111222,11111222,11144222' 
ADCP,ioos:station:wmo:42361:1,2015-01-04T01:30:00Z,27.5500,-92.4900,122.0,11.4,168.0,99.0,'11111222,11111222,11144222' 
ADCP,ioos:station:wmo:42361:1,2015-01-04T02:30:00Z,27.5500,-92.4900,122.0,8.6,231.0,99.0,'11111222,11111222,11144222' 
ADCP,ioos:station:wmo:42361:1,2015-01-04T03:30:00Z,27.5500,-92.4900,122.0,7.0,277.0,99.0,'11111222,11111222,11144222' 
ADCP,ioos:station:wmo:42361:1,2015-01-04T04:30:00Z,27.5500,-92.4900,122.0,7.8,289.0,99.0,'11111222,11111222,11144222' 
ADCP,ioos:station:wmo:42361:1,2015-01-04T05:30:00Z,27.5500,-92.4900,122.0,8.2,317.0,99.0,'11111222,11111222,11144222' 
ADCP,ioos:station:wmo:42361:1,2015-01-04T06:30:00Z,27.5500,-92.4900,122.0,9.0,310.0,99.0,'11111222,11111222,11144222' 
ADCP,ioos:station:wmo:42361:1,2015-01-04T07:30:00Z,27.5500,-92.4900,122.0,8.6,302.0,99.0,'11111222,11111222,11144222' 
ADCP,ioos:station:wmo:42361:1,2015-01-04T08:30:00Z,27.5500,-92.4900,122.0,8.4,295.0,99.0,'11111222,11111222,11144222' 
ADCP,ioos:station:wmo:42361:1,2015-01-04T09:30:00Z,27.5500,-92.4900,122.0,9.0,311.0,99.0,'11111222,11111222,11144222' 
ADCP,ioos:station:wmo:42361:1,2015-01-04T10:30:00Z,27.5500,-92.4900,122.0,13.0,328.0,99.0,'11111222,11111222,11144222' 
ADCP,ioos:station:wmo:42361:1,2015-01-04T11:30:00Z,27.5500,-92.4900,122.0,16.1,336.0,99.0,'11111222,11111222,11144222' 
ADCP,ioos:station:wmo:42361:1,2015-01-04T12:30:00Z,27.5500,-92.4900,122.0,16.8,339.0,99.0,'11111222,11111222,11144222' 
ADCP,ioos:station:wmo:42361:1,2015-01-04T13:30:00Z,27.5500,-92.4900,122.0,16.4,344.0,99.0,'11111222,11111222,11144222' 
ADCP,ioos:station:wmo:42361:1,2015-01-04T14:30:00Z,27.5500,-92.4900,122.0,15.8,343.0,99.0,'11111222,11111222,11144222' 
ADCP,ioos:station:wmo:42361:1,2015-01-04T15:30:00Z,27.5500,-92.4900,122.0,15.8,341.0,99.0,'11111222,11111222,11144222' 
ADCP,ioos:station:wmo:42361:1,2015-01-04T16:30:00Z,27.5500,-92.4900,122.0,15.1,345.0,99.0,'11111222,11111222,11144222' 
ADCP,ioos:station:wmo:42361:1,2015-01-04T17:30:00Z,27.5500,-92.4900,122.0,12.8,347.0,99.0,'11111222,11111222,11144222' 
ADCP,ioos:station:wmo:42361:1,2015-01-04T18:30:00Z,27.5500,-92.4900,122.0,12.6,343.0,99.0,'11111222,11111222,11144222' 
ADCP,ioos:station:wmo:42361:1,2015-01-04T19:30:00Z,27.5500,-92.4900,122.0,11.5,342.0,99.0,'11111222,11111222,11144222' 
ADCP,ioos:station:wmo:42361:1,2015-01-04T20:30:00Z,27.5500,-92.4900,122.0,10.3,342.0,99.0,'11111222,11111222,11144222' 
ADCP,ioos:station:wmo:42361:1,2015-01-04T21:30:00Z,27.5500,-92.4900,122.0,10.9,341.0,99.0,'11111222,11111222,11144222' 
ADCP,ioos:station:wmo:42361:1,2015-01-04T22:30:00Z,27.5500,-92.4900,122.0,11.3,340.0,99.0,'11111222,11111222,11144222' 
ADCP,ioos:station:wmo:42361:1,2015-01-04T23:30:00Z,27.5500,-92.4900,122.0,12.1,343.0,99.0,'11111222,11111222,11144222' 
ADCP,ioos:station:wmo:42361:1,2015-01-05T00:30:00Z,27.5500,-92.4900,122.0,14.0,348.0,99.0,'11111222,11111222,11144222' 
ADCP,ioos:station:wmo:42361:1,2015-01-05T01:30:00Z,27.5500,-92.4900,122.0,14.8,350.0,99.0,'11111222,11111222,11144222' 
ADCP,ioos:station:wmo:42361:1,2015-01-05T02:30:00Z,27.5500,-92.4900,122.0,14.6,352.0,99.0,'11111222,11111222,11144222' 
ADCP,ioos:station:wmo:42361:1,2015-01-05T03:30:00Z,27.5500,-92.4900,122.0,14.1,354.0,99.0,'11111222,11111222,11144222' 
ADCP,ioos:station:wmo:42361:1,2015-01-05T04:30:00Z,27.5500,-92.4900,122.0,14.5,351.0,99.0,'11111222,11111222,11144222' 
ADCP,ioos:station:wmo:42361:1,2015-01-05T05:30:00Z,27.5500,-92.4900,122.0,14.2,352.0,99.0,'11111222,11111222,11144222' 
ADCP,ioos:station:wmo:42361:1,2015-01-05T06:30:00Z,27.5500,-92.4900,122.0,14.2,354.0,99.0,'11111222,11111222,11144222' 
ADCP,ioos:station:wmo:42361:1,2015-01-05T07:30:00Z,27.5500,-92.4900,122.0,13.7,359.0,99.0,'11111222,11111222,11144222' 
ADCP,ioos:station:wmo:42361:1,2015-01-05T08:30:00Z,27.5500,-92.4900,122.0,14.1,355.0,99.0,'11111222,11111222,11144222' 
ADCP,ioos:station:wmo:42361:1,2015-01-05T09:30:00Z,27.5500,-92.4900,122.0,14.6,353.0,99.0,'11111222,11111222,11144222' 
ADCP,ioos:station:wmo:42361:1,2015-01-05T10:30:00Z,27.5500,-92.4900,122.0,14.3,358.0,99.0,'11111222,11111222,11144222' 
ADCP,ioos:station:wmo:42361:1,2015-01-05T11:30:00Z,27.5500,-92.4900,122.0,14.1,360.0,99.0,'11111222,11144222,11144222' 
ADCP,ioos:station:wmo:42361:1,2015-01-05T12:30:00Z,27.5500,-92.4900,122.0,14.2,4.0,99.0,'11111222,11111222,11144222' 
ADCP,ioos:station:wmo:42361:1,2015-01-05T13:30:00Z,27.5500,-92.4900,122.0,14.0,3.0,99.0,'11111222,11111222,11144222' 
ADCP,ioos:station:wmo:42361:1,2015-01-05T14:30:00Z,27.5500,-92.4900,122.0,12.6,8.0,99.0,'11111222,11111222,11144222' 
ADCP,ioos:station:wmo:42361:1,2015-01-05T15:30:00Z,27.5500,-92.4900,122.0,11.0,15.0,99.0,'11111222,11111222,11144222' 
ADCP,ioos:station:wmo:42361:1,2015-01-05T16:30:00Z,27.5500,-92.4900,122.0,11.1,17.0,99.0,'11111222,11111222,11144222' 
ADCP,ioos:station:wmo:42361:1,2015-01-05T17:30:00Z,27.5500,-92.4900,122.0,10.4,18.0,99.0,'11111222,11111222,11144222' 
ADCP,ioos:station:wmo:42361:1,2015-01-05T18:30:00Z,27.5500,-92.4900,122.0,9.9,22.0,99.0,'11111222,11111222,11144222' 
ADCP,ioos:station:wmo:42361:1,2015-01-05T19:30:00Z,27.5500,-92.4900,122.0,9.5,21.0,99.0,'11111222,11111222,11144222' 
ADCP,ioos:station:wmo:42361:1,2015-01-05T20:30:00Z,27.5500,-92.4900,122.0,8.6,29.0,99.0,'11111222,11111222,11144222' 
ADCP,ioos:station:wmo:42361:1,2015-01-05T21:30:00Z,27.5500,-92.4900,122.0,8.1,29.0,99.0,'11111222,11111222,11144222' 
ADCP,ioos:station:wmo:42361:1,2015-01-05T22:30:00Z,27.5500,-92.4900,122.0,8.7,29.0,99.0,'11111222,11111222,11144222' 
ADCP,ioos:station:wmo:42361:1,2015-01-05T23:30:00Z,27.5500,-92.4900,122.0,8.2,36.0,99.0,'11111222,11111222,11144222' 
ADCP,ioos:station:wmo:42361:1,2015-01-06T00:30:00Z,27.5500,-92.4900,122.0,7.3,40.0,99.0,'11111222,11111222,11144222' 
ADCP,ioos:station:wmo:42361:1,2015-01-06T01:30:00Z,27.5500,-92.4900,122.0,7.0,45.0,99.0,'11111222,11111222,11144222' 
ADCP,ioos:station:wmo:42361:1,2015-01-06T02:30:00Z,27.5500,-92.4900,122.0,6.5,43.0,99.0,'11111222,11111222,11144222' 
ADCP,ioos:station:wmo:42361:1,2015-01-06T03:30:00Z,27.5500,-92.4900,122.0,5.9,49.0,99.0,'11111222,11111222,11144222' 
ADCP,ioos:station:wmo:42361:1,2015-01-06T04:30:00Z,27.5500,-92.4900,122.0,6.2,41.0,99.0,'11111222,11111222,11144222' 
ADCP,ioos:station:wmo:42361:1,2015-01-06T05:30:00Z,27.5500,-92.4900,122.0,5.7,42.0,99.0,'11111222,11111222,11144222' 
ADCP,ioos:station:wmo:42361:1,2015-01-06T06:30:00Z,27.5500,-92.4900,122.0,4.8,32.0,99.0,'11111222,11111222,11144222' 
ADCP,ioos:station:wmo:42361:1,2015-01-06T07:30:00Z,27.5500,-92.4900,122.0,4.3,39.0,99.0,'11111222,11111222,11144222' 
ADCP,ioos:station:wmo:42361:1,2015-01-06T08:30:00Z,27.5500,-92.4900,122.0,3.8,35.0,99.0,'11111222,11111222,11144222' 
ADCP,ioos:station:wmo:42361:1,2015-01-06T09:30:00Z,27.5500,-92.4900,122.0,3.2,28.0,99.0,'11111222,11111222,11144222' 
ADCP,ioos:station:wmo:42361:1,2015-01-06T10:30:00Z,27.5500,-92.4900,122.0,3.6,16.0,99.0,'11111222,11111222,11144222' 
ADCP,ioos:station:wmo:42361:1,2015-01-06T11:30:00Z,27.5500,-92.4900,122.0,3.3,19.0,99.0,'11111222,11111222,11144222' 
ADCP,ioos:station:wmo:42361:1,2015-01-06T12:30:00Z,27.5500,-92.4900,122.0,2.9,20.0,99.0,'11111222,11111222,11144222' 
ADCP,ioos:station:wmo:42361:1,2015-01-06T13:30:00Z,27.5500,-92.4900,122.0,3.4,14.0,99.0,'11111222,11111222,11144222' 
ADCP,ioos:station:wmo:42361:1,2015-01-06T14:30:00Z,27.5500,-92.4900,122.0,3.4,29.0,99.0,'11111222,11111222,11144222' 
ADCP,ioos:station:wmo:42361:1,2015-01-06T15:30:00Z,27.5500,-92.4900,122.0,3.6,27.0,99.0,'11111222,11111222,11144222' 
ADCP,ioos:station:wmo:42361:1,2015-01-06T16:30:00Z,27.5500,-92.4900,122.0,4.2,16.0,99.0,'11111222,11111222,11144222' 
ADCP,ioos:station:wmo:42361:1,2015-01-06T17:30:00Z,27.5500,-92.4900,122.0,4.5,8.0,99.0,'11111222,11111222,11144222' 
ADCP,ioos:station:wmo:42361:1,2015-01-06T18:30:00Z,27.5500,-92.4900,122.0,5.2,14.0,99.0,'11111222,11111222,11144222' 
ADCP,ioos:station:wmo:42361:1,2015-01-06T19:30:00Z,27.5500,-92.4900,122.0,5.0,14.0,99.0,'11111222,11111222,11144222' 
ADCP,ioos:station:wmo:42361:1,2015-01-06T20:30:00Z,27.5500,-92.4900,122.0,5.4,17.0,99.0,'11111222,11111222,11144222' 
ADCP,ioos:station:wmo:42361:1,2015-01-06T21:30:00Z,27.5500,-92.4900,122.0,6.0,16.0,99.0,'11111222,11111222,11144222' 
ADCP,ioos:station:wmo:42361:1,2015-01-06T22:30:00Z,27.5500,-92.4900,122.0,6.6,19.0,99.0,'11111222,11111222,11144222' 
ADCP,ioos:station:wmo:42361:1,2015-01-06T23:30:00Z,27.5500,-92.4900,122.0,6.9,24.0,99.0,'11111222,11111222,11144222' 
ADCP,ioos:station:wmo:42361:1,2015-01-07T00:30:00Z,27.5500,-92.4900,122.0,6.5,25.0,99.0,'11111222,11111222,11144222' 
ADCP,ioos:station:wmo:42361:1,2015-01-07T01:30:00Z,27.5500,-92.4900,122.0,6.2,23.0,99.0,'11111222,11111222,11144222' 
ADCP,ioos:station:wmo:42361:1,2015-01-07T02:30:00Z,27.5500,-92.4900,122.0,5.8,24.0,99.0,'11111222,11111222,11144222' 
ADCP,ioos:station:wmo:42361:1,2015-01-07T03:30:00Z,27.5500,-92.4900,122.0,5.8,22.0,99.0,'11111222,11111222,11144222' 
ADCP,ioos:station:wmo:42361:1,2015-01-07T04:30:00Z,27.5500,-92.4900,122.0,5.4,26.0,99.0,'11111222,11111222,11144222' 
ADCP,ioos:station:wmo:42361:1,2015-01-07T05:30:00Z,27.5500,-92.4900,122.0,5.2,25.0,99.0,'11111222,11111222,11144222' 
ADCP,ioos:station:wmo:42361:1,2015-01-07T06:30:00Z,27.5500,-92.4900,122.0,6.2,20.0,99.0,'11111222,11111222,11144222' 
ADCP,ioos:station:wmo:42361:1,2015-01-07T07:30:00Z,27.5500,-92.4900,122.0,5.5,21.0,99.0,'11111222,11111222,11144222' 
ADCP,ioos:station:wmo:42361:1,2015-01-07T08:30:00Z,27.5500,-92.4900,122.0,5.1,23.0,99.0,'11111222,11111222,11144222' 
ADCP,ioos:station:wmo:42361:1,2015-01-07T09:30:00Z,27.5500,-92.4900,122.0,5.1,29.0,99.0,'11111222,11111222,11144222' 
ADCP,ioos:station:wmo:42361:1,2015-01-07T10:30:00Z,27.5500,-92.4900,122.0,4.4,20.0,99.0,'11111222,11111222,11144222' 
ADCP,ioos:station:wmo:42361:1,2015-01-07T11:30:00Z,27.5500,-92.4900,122.0,4.1,18.0,99.0,'11111222,11111222,11144222' 
ADCP,ioos:station:wmo:42361:1,2015-01-07T12:30:00Z,27.5500,-92.4900,122.0,5.0,19.0,99.0,'11111222,11111222,11144222' 
ADCP,ioos:station:wmo:42361:1,2015-01-07T13:30:00Z,27.5500,-92.4900,122.0,5.9,26.0,99.0,'11111222,11111222,11144222' 
ADCP,ioos:station:wmo:42361:1,2015-01-07T14:30:00Z,27.5500,-92.4900,122.0,5.9,26.0,99.0,'11111222,11111222,11144222' 
ADCP,ioos:station:wmo:42361:1,2015-01-07T15:30:00Z,27.5500,-92.4900,122.0,5.6,26.0,99.0,'11111222,11111222,11144222' 
ADCP,ioos:station:wmo:42361:1,2015-01-07T16:30:00Z,27.5500,-92.4900,122.0,6.0,9.0,99.0,'11111222,11111222,11144222' 
ADCP,ioos:station:wmo:42361:1,2015-01-07T17:30:00Z,27.5500,-92.4900,122.0,6.4,3.0,99.0,'11111222,11111222,11144222' 
ADCP,ioos:station:wmo:42361:1,2015-01-07T18:30:00Z,27.5500,-92.4900,122.0,7.9,359.0,99.0,'11111222,11111222,11144222' 
ADCP,ioos:station:wmo:42361:1,2015-01-07T19:30:00Z,27.5500,-92.4900,122.0,9.6,359.0,99.0,'11111222,11111222,11144222' 
ADCP,ioos:station:wmo:42361:1,2015-01-07T20:30:00Z,27.5500,-92.4900,122.0,10.6,359.0,99.0,'11111222,11111222,11144222' 
ADCP,ioos:station:wmo:42361:1,2015-01-07T21:30:00Z,27.5500,-92.4900,122.0,11.6,358.0,99.0,'11111222,11111222,11144222' 
ADCP,ioos:station:wmo:42361:1,2015-01-07T22:30:00Z,27.5500,-92.4900,122.0,13.4,353.0,99.0,'11111222,11111222,11144222' 
ADCP,ioos:station:wmo:42361:1,2015-01-07T23:30:00Z,27.5500,-92.4900,122.0,15.3,355.0,99.0,'11111222,11111222,11144222' 
ADCP,ioos:station:wmo:42361:1,2015-01-08T00:30:00Z,27.5500,-92.4900,122.0,16.3,355.0,99.0,'11111222,11111222,11144222' 
ADCP,ioos:station:wmo:42361:1,2015-01-08T01:30:00Z,27.5500,-92.4900,122.0,18.1,354.0,99.0,'11111222,11111222,11144222' 
ADCP,ioos:station:wmo:42361:1,2015-01-08T02:30:00Z,27.5500,-92.4900,122.0,19.1,358.0,99.0,'11111222,11111222,11144222' 
ADCP,ioos:station:wmo:42361:1,2015-01-08T03:30:00Z,27.5500,-92.4900,122.0,18.7,359.0,99.0,'11111222,11111222,11144222' 
ADCP,ioos:station:wmo:42361:1,2015-01-08T04:30:00Z,27.5500,-92.4900,122.0,18.8,1.0,99.0,'11111222,11111222,11144222' 
ADCP,ioos:station:wmo:42361:1,2015-01-08T05:30:00Z,27.5500,-92.4900,122.0,18.0,5.0,99.0,'11111222,11111222,11144222' 
ADCP,ioos:station:wmo:42361:1,2015-01-08T06:30:00Z,27.5500,-92.4900,122.0,17.9,8.0,99.0,'11111222,11111222,11144222' 
ADCP,ioos:station:wmo:42361:1,2015-01-08T07:30:00Z,27.5500,-92.4900,122.0,17.5,11.0,99.0,'11111222,11111222,11144222' 
ADCP,ioos:station:wmo:42361:1,2015-01-08T08:30:00Z,27.5500,-92.4900,122.0,17.3,13.0,99.0,'11111222,11111222,11144222' 
ADCP,ioos:station:wmo:42361:1,2015-01-08T09:30:00Z,27.5500,-92.4900,122.0,16.7,16.0,99.0,'11111222,11111222,11144222' 
ADCP,ioos:station:wmo:42361:1,2015-01-08T10:30:00Z,27.5500,-92.4900,122.0,15.0,21.0,99.0,'11111222,11111222,11144222' 
ADCP,ioos:station:wmo:42361:1,2015-01-08T11:30:00Z,27.5500,-92.4900,122.0,14.6,17.0,99.0,'11111222,11111222,11144222' 
ADCP,ioos:station:wmo:42361:1,2015-01-08T12:30:00Z,27.5500,-92.4900,122.0,13.7,15.0,99.0,'11111222,11111222,11144222' 
ADCP,ioos:station:wmo:42361:1,2015-01-08T13:30:00Z,27.5500,-92.4900,122.0,12.8,16.0,99.0,'11111222,11111222,11144222' 
ADCP,ioos:station:wmo:42361:1,2015-01-08T14:30:00Z,27.5500,-92.4900,122.0,12.2,21.0,99.0,'11111222,11111222,11144222' 
ADCP,ioos:station:wmo:42361:1,2015-01-08T15:30:00Z,27.5500,-92.4900,122.0,9.3,19.0,99.0,'11111222,11111222,11144222' 
ADCP,ioos:station:wmo:42361:1,2015-01-08T16:30:00Z,27.5500,-92.4900,122.0,8.4,19.0,99.0,'11111222,11111222,11144222' 
ADCP,ioos:station:wmo:42361:1,2015-01-08T17:30:00Z,27.5500,-92.4900,122.0,7.8,11.0,99.0,'11111222,11111222,11144222' 
ADCP,ioos:station:wmo:42361:1,2015-01-08T18:30:00Z,27.5500,-92.4900,122.0,7.0,10.0,99.0,'11111222,11111222,11144222' 
ADCP,ioos:station:wmo:42361:1,2015-01-08T19:30:00Z,27.5500,-92.4900,122.0,6.7,351.0,99.0,'11111222,11111222,11144222' 
ADCP,ioos:station:wmo:42361:1,2015-01-08T20:30:00Z,27.5500,-92.4900,122.0,7.3,355.0,99.0,'11111222,11111222,11144222' 
ADCP,ioos:station:wmo:42361:1,2015-01-08T21:30:00Z,27.5500,-92.4900,122.0,7.2,354.0,99.0,'11111222,11111222,11144222' 
ADCP,ioos:station:wmo:42361:1,2015-01-08T22:30:00Z,27.5500,-92.4900,122.0,7.2,358.0,99.0,'11111222,11111222,11144222' 
ADCP,ioos:station:wmo:42361:1,2015-01-08T23:30:00Z,27.5500,-92.4900,122.0,5.7,4.0,99.0,'11111222,11111222,11144222' 
ADCP,ioos:station:wmo:42361:1,2015-01-09T00:30:00Z,27.5500,-92.4900,122.0,4.4,11.0,99.0,'11111222,11111222,11144222' 
ADCP,ioos:station:wmo:42361:1,2015-01-09T01:30:00Z,27.5500,-92.4900,122.0,4.2,28.0,99.0,'11111222,11111222,11144222' 
ADCP,ioos:station:wmo:42361:1,2015-01-09T02:30:00Z,27.5500,-92.4900,122.0,4.4,34.0,99.0,'11111222,11111222,11144222' 
ADCP,ioos:station:wmo:42361:1,2015-01-09T03:30:00Z,27.5500,-92.4900,122.0,3.6,44.0,99.0,'11111222,11111222,11144222' 
ADCP,ioos:station:wmo:42361:1,2015-01-09T04:30:00Z,27.5500,-92.4900,122.0,2.4,28.0,99.0,'11111222,11111222,11144222' 
ADCP,ioos:station:wmo:42361:1,2015-01-09T05:30:00Z,27.5500,-92.4900,122.0,4.5,37.0,99.0,'11111222,11111222,11144222' 
ADCP,ioos:station:wmo:42361:1,2015-01-09T06:30:00Z,27.5500,-92.4900,122.0,3.1,52.0,99.0,'11111222,11111222,11144222' 
ADCP,ioos:station:wmo:42361:1,2015-01-09T07:30:00Z,27.5500,-92.4900,122.0,3.8,36.0,99.0,'11111222,11111222,11144222' 